Weather in Novoorlovsk

Russia / Zabaykalsky Krai     51°03′39″N   114°43′49″E
temp.,
°C
wind,
m/s
gust,
m/s
humid.,
%
clouds,
%
prec.,
mm/h
press.,
hPa
HPBL,
m
10 may, mon
mon1000:00+7w2368100 0.2 100873
03:00+5wnw227876 0.3 100813
06:00+4wnw1182100 0.0 100810
09:00+7e2268100 0.0 1007422
12:00+9ese3363100 0.4 10071012
15:00+7se4581100 1.9 1006867
18:00+8ene2279100 0.3 1005373
21:00+6nnw2492100 1.1 1006337
11 may, tue
tue1100:00+4nne81291100 1.8 1008686
03:00+4nnw4788100 1.8 1009353
06:00+4nnw3691100 0.0 1007232
09:00+7nnw5773100 0.0 1007558
12:00+11n7104360 0.0 10052200
15:00+14n6826100 0.0 10033111
18:00+12n11104193 0.0 10041689
21:00+8nw10156765 0.4 1006588
12 may, wed
wed1200:00+6wnw9157313 0.1 1006411
03:00+5wnw916712 0.1 1007412
06:00+3wnw916740 0.0 1008444
09:00+7wnw1013564 0.0 1007625
12:00+11nw910435 0.0 10061481
15:00+14nw9112913 0.0 10042674
18:00+14wnw8112651 0.0 10042955
21:00+9wnw484351 0.0 1005137
13 may, thu
thu1300:00+7wnw335171 0.0 100735
03:00+5wnw3955100 0.0 1008207
06:00+4wnw3854100 0.0 1008206
09:00+7nw4637100 0.0 1008580
12:00+9wnw4532100 0.0 10071527
15:00+12nnw4528100 0.0 10052183
18:00+11nnw4527100 0.0 10052251
21:00+9wnw2235100 0.0 100429
14 may, fri
fri1400:00+7wnw4938100 0.0 1005296
03:00+6nw4747100 0.0 1005195
06:00+5n71155100 0.0 1006656
09:00+5n7957100 0.1 10091098
12:00+9nnw71041100 0.5 10082568
15:00+10nw101127100 0.5 10073423
18:00+11nnw8122794 0.0 10082849
21:00+8nnw22395 0.0 100910